This demonstration page uses our WeatherBlox Daily Observations layout. Learn more.

Left ArrowRight Arrow

Hourly Observations for January 25, 2022

Temp ( °F °C ) Dew Point ( °F °C ) Humidity (%) Winds ( mph kmh ) Pressure ( in mb ) Visibility ( mi km ) Precip ( " mm )
12:52 am 00:52 Clear 27 -2.8 22 -5.6 81 81 N 15 24 30.04 1017 10 16 0.00 0.00
1:50 am 01:50 Mostly Cloudy 27 -3 21 -6 80 80 N 16 26 30.14 1021 10 16 0.00 0.00
1:52 am 01:52 Mostly Cloudy 26 -3.3 21 -6.1 81 81 N 15 24 30.07 1018 10 16 0.00 0.00
2:16 am 02:16 Partly Cloudy 25 -3.9 19 -7.2 78 78 N 18 30 30.15 1021 10 16 0.00 0.00
2:52 am 02:52 Clear 23 -5 18 -7.8 81 81 N 16 26 30.11 1020 10 16 0.00 0.00
3:52 am 03:52 Clear 21 -6.1 15 -9.4 78 78 N 14 22 30.13 1020 10 16 0.00 0.00
4:52 am 04:52 Clear 19 -7.2 13 -10.6 77 77 N 13 20 30.15 1021 10 16 0.00 0.00
5:52 am 05:52 Clear 18 -7.8 12 -11.1 77 77 N 10 17 30.18 1022 10 16 0.00 0.00
6:52 am 06:52 Clear 16 -8.9 10 -12.2 77 77 N 10 17 30.23 1024 10 16 0.00 0.00
7:52 am 07:52 Sunny 16 -8.9 9 -12.8 74 74 N 9 15 30.27 1025 10 16 0.00 0.00
8:52 am 08:52 Sunny 18 -7.8 10 -12.2 71 71 NNE 14 22 30.29 1026 10 16 0.00 0.00
9:52 am 09:52 Sunny 20 -6.7 9 -12.8 62 62 NE 13 20 30.32 1027 10 16 0.00 0.00
10:52 am 10:52 Sunny 23 -5 8 -13.3 53 53 NNE 12 19 30.34 1028 10 16 0.00 0.00
11:52 am 11:52 Sunny 25 -3.9 5 -15 42 42 ENE 12 19 30.33 1027 10 16 0.00 0.00
12:52 pm 12:52 Sunny 28 -2.2 4 -15.6 35 35 NE 10 17 30.32 1027 10 16 0.00 0.00
1:52 pm 13:52 Sunny 30 -1.1 5 -15 34 34 N 8 13 30.32 1027 10 16 0.00 0.00
2:52 pm 14:52 Sunny 30 -1.1 1 -17.2 29 29 NE 10 17 30.33 1027 10 16 0.00 0.00
3:52 pm 15:52 Sunny 29 -1.7 0 -17.8 28 28 NNE 9 15 30.34 1028 10 16 0.00 0.00
4:52 pm 16:52 Sunny 28 -2.2 -1 -18.3 28 28 N 10 17 30.37 1028 10 16 0.00 0.00
5:52 pm 17:52 Clear 24 -4.4 0 -17.8 35 35 N 8 13 30.40 1030 10 16 0.00 0.00
6:52 pm 18:52 Clear 23 -5 1 -17.2 38 38 N 8 13 30.43 1030 10 16 0.00 0.00
7:52 pm 19:52 Clear 22 -5.6 2 -16.7 42 42 N 13 20 30.45 1031 10 16 0.00 0.00
8:52 pm 20:52 Clear 20 -6.7 3 -16.1 48 48 N 7 11 30.47 1032 10 16 0.00 0.00
9:52 pm 21:52 Clear 20 -6.7 2 -16.7 45 45 N 9 15 30.48 1032 10 16 0.00 0.00
10:52 pm 22:52 Clear 19 -7.2 1 -17.2 45 45 N 8 13 30.50 1033 10 16 0.00 0.00
11:52 pm 23:52 Clear 17 -8.3 2 -16.7 51 51 N 9 15 30.50 1033 10 16 0.00 0.00

Powered by AerisWeather